Simultaneous Nadir Overpasses (SNOs) Predictions

Prediction of SNOs between NPP and PACE Satellite Orbit:

Table of predicted SNOs for the next 14.0 days since TLE Epoch: 11/2/2024
Index Date (NPP) Time (NPP) Lat,Lon (NPP) SZA (NPP ) Date (PACE) Time (PACE) Lat,Lon (PACE) SZA (PACE ) Distance(km) Time Diff (sec)
1 11/03/2024 06:22:50 79.90, 46.43 96.72 11/03/2024 06:23:18 79.90, 46.34 96.72 1.90 28
2 11/03/2024 07:13:29 -79.74,-144.73 83.55 11/03/2024 07:12:22 -79.73,-144.67 83.53 1.08 67
3 11/05/2024 09:58:32 -79.96, 171.94 82.53 11/05/2024 09:59:28 -79.96, 171.89 82.54 1.11 56
4 11/05/2024 10:49:12 79.79, -19.13 97.20 11/05/2024 10:48:32 79.78, -19.06 97.20 1.46 40
5 11/07/2024 14:24:52 -79.80, 106.87 82.16 11/07/2024 14:24:39 -79.80, 106.80 82.14 1.37 13
6 11/09/2024 18:00:34 79.84,-127.48 98.54 11/09/2024 18:00:45 79.84,-127.57 98.55 1.76 11
7 11/11/2024 21:36:16 -79.93, -2.24 80.71 11/11/2024 21:36:50 -79.92, -2.18 80.74 1.47 34
8 11/11/2024 22:26:53 79.67, 167.49 98.86 11/11/2024 22:25:52 79.68, 167.35 98.90 3.05 61
9 11/14/2024 01:11:57 79.97, 123.46 99.93 11/14/2024 01:12:52 79.97, 123.49 99.91 0.46 55



Historial Predications of SNOs between NPP and PACE
